BREEZE-KM DEB, 41718

Orbit data source: Space-Track

BREEZE-KM DEB, 41718 is space debris in LEO originally from a launch on Tue, 31 Mar 2015 UTC launched from the Plesetsk Missile And Space Complex (PKMTR). Debris objects in space refer to the collection of defunct objects orbiting the Earth. Examples of debris include non-operational satellites, rocket bodies, and fragments generated from explosions, collisions, or faulty payload assembly.

Loading next visibility...
Identifier
41718, 2015-020F
Orbit
LEO
Country
Flag of CISCIS
Related business
Manufacturer
Khrunichev
Mission
Spacecraft
Bus & Motor
Unknown
Mass
Unknown
Launch date (UTC)
2015-03-31 (11 years ago)
Launch vehicle
Unknown
Launch site
Plesetsk Missile And Space Complex (PKMTR)
Object type
Payload
Rocket body
Debris
Shape & HBR
Unknown shape, 0.1 m
Radar Cross Section
Small (<0.1 m²)

Expand to show TLE details & history
Last TLE update: 3 days ago

TLE from 3 days ago
0 BREEZE-KM DEB
1 41718U 15020F   26034.28296326  .00000058  00000-0  15465-3 0  9999
2 41718  82.4843 243.6323 0228270 194.3928 165.0607 12.91307639502601
Epoch: 2026-02-03T06:47Z
TLE epoch observation values (Epoch: 2026-02-03T06:47:28.025Z)
Latitude
-0.00004°
Longitude
8.2994°
Altitude
1,468.659 km
Speed
7.049 km/s
True Right ascension
16h 14m 31s
True Declination
0° 00' 00"
Sunlit
Object was in daylight at epoch
Visualization orbit readout
Latitude
Unknown
Longitude
Unknown
Altitude
Unknown
Speed
Unknown
Apparent Right ascension
Unknown
Apparent Declination
Unknown
Sunlit
N/A
Visualization observer readout
Local Sidereal Time
07:16:47
Azimuth
Unknown
Elevation
Unknown
Doppler factor
Unknown
Orbital elements
Apogee altitude
1,468.743 km
Perigee altitude
1,118.496 km
Semi-major axis
7,671.757 km
Eccentricity
0.02283
Inclination
82.4843°
RAAN
243.6323°
Arg. of periapsis
194.3928°
True anomaly
165.71691°
Mean anomaly
165.0607°
Eccentric anomaly
165.39059°
Mean motion
3.22999 °/min
Orbital period
111.46 mins
BSTAR
0.00015465
Loading maneuver chart data...
Computing Atmospheric mass density...
Loading historical data...
Loading historical data...
Loading historical data...
Loading historical data...
Loading historical data...
Loading historical data...
Loading historical data...

Documentation

Showing up to 5 results
|